[[{"header":{"parameterUnit":"m.s-1","parameterCategory":1,"la1":30.2991,"la2":30.254,"lo1":-89.0895,"lo2":-89.0444,"dy":0.0017,"dx":0.0017,"nx":28,"ny":28,"refTime":"2024-03-25T21:00:00:Z","depth":0,"parameterNumber":2,"parameterNumberName":"U-component_of_WINDS"},"data":[0,0,0,0,0,0,0,0,0,0,0,0,0,0,0,0,0,0,0,0,0,0,0,0,0,0,0,0,0,0,0,0,0,0,0,0,0,0,0,0,0,0,0,0,0,0,0,0,0,0,0,0,0,0,0,0,0,0,1.2379,1.2379,0,1.2379,1.2379,1.2379,1.2361,1.236,1.236,1.2359,1.2361,1.2361,1.2362,0,0,0,0,0,0,0,0,0,0,0,0,0,1.2366,1.2367,1.2379,1.2379,1.2379,1.2379,1.2379,1.2379,1.2361,1.236,1.236,1.2359,1.2361,1.2361,1.2362,0,0,0,0,0,0,0,0,0,0,0,0,0,1.237,1.2367,1.2379,1.237,1.2369,1.2379,1.2379,1.2379,1.2361,1.236,1.2359,1.2359,1.236,1.2361,1.2362,1.2382,0,0,1.2364,1.2364,0,0,0,0,0,0,0,0,1.237,1.237,1.2371,1.2371,1.237,1.2369,1.2375,1.238,1.2361,1.2364,1.2359,1.2358,1.2364,1.2365,1.2366,1.2382,1.2382,1.2364,1.2365,1.2365,1.2365,0,0,0,0,0,0,0,1.2369,1.237,1.2379,1.2371,1.237,1.2367,1.2367,1.2376,1.2368,1.2364,1.2362,1.2363,1.2364,1.2366,1.2366,1.2382,1.2364,1.2365,1.2365,1.2366,1.2417,1.2417,0,0,0,0,0,0,1.237,1.237,1.2379,1.2379,1.2368,1.2368,1.2367,1.237,1.2368,1.2367,1.2363,1.2362,1.2365,1.2365,1.2366,1.2391,1.2365,1.2366,1.2366,1.2416,1.2417,1.2418,0,0,0,0,0,0,1.237,1.2371,1.2379,1.2374,1.2375,1.2369,1.2372,1.2371,1.2372,1.2368,1.2367,1.2366,1.2364,1.2365,1.2379,1.2391,1.2366,1.2367,1.2415,1.2416,1.2417,1.244,0,0,0,0,0,0,1.237,1.2371,1.2377,1.2375,1.2375,1.239,1.2373,1.2371,1.2374,1.2372,1.237,1.237,1.2364,1.2378,1.2379,1.2391,1.2367,1.2414,1.2415,1.2417,1.2438,1.2442,1.2445,0,0,0,0,0,1.2369,1.2383,1.2378,1.2379,1.2383,1.2391,1.2392,1.2384,1.2375,1.2382,1.238,1.237,1.2389,1.2379,1.2381,1.2393,1.2413,1.2415,1.2417,1.2436,1.2441,1.2445,0,0,0,0,0,0,1.2387,1.2383,1.2376,1.239,1.2391,1.2388,1.2396,1.2389,1.2393,1.2391,1.2382,1.2382,1.2398,1.2397,1.2385,1.2414,1.24,1.2402,1.2414,1.2418,1.2422,1.2422,1.2368,0,0,0,0,0,1.2393,1.2399,1.2395,1.2407,1.2408,1.2402,1.2406,1.24,1.2401,1.2402,1.24,1.2402,1.2409,1.2413,1.2419,1.2438,1.2439,1.2448,1.2452,1.2454,1.2457,1.2469,1.2474,1.2424,1.2424,1.2424,0,0,1.2404,1.2403,1.2407,1.2411,1.2411,1.2419,1.2403,1.2411,1.2418,1.2403,1.2416,1.2415,1.2417,1.2434,1.2441,1.2434,1.2471,1.2457,1.2459,1.246,1.2472,1.2476,1.2481,1.2426,1.2426,1.2425,0,0,1.2429,1.2428,1.2439,1.244,1.2441,1.2438,1.2441,1.244,1.2439,1.2452,1.2442,1.245,1.2461,1.2464,1.2466,1.2497,1.2488,1.2499,1.2517,1.2529,1.2533,1.2537,1.2549,1.2553,1.2501,1.2501,1.2501,0,1.2443,1.2454,1.2446,1.2456,1.2459,1.2447,1.246,1.2461,1.2464,1.2468,1.2459,1.2475,1.2476,1.2494,1.2502,1.2504,1.2509,1.2498,1.2533,1.2537,1.254,1.2551,1.2556,1.2502,1.2502,1.2502,1.2502,0,1.2472,1.248,1.2489,1.2493,1.2498,1.2509,1.2504,1.251,1.2505,1.2503,1.2518,1.2518,1.2525,1.2529,1.2524,1.2548,1.2544,1.2535,1.252,1.2546,1.2557,1.2561,1.2504,1.2504,1.2504,1.2503,0,0,1.2506,1.2508,1.2512,1.2514,1.2516,1.2523,1.2535,1.2542,1.2548,1.2551,1.2562,1.2574,1.2566,1.257,1.2565,1.2576,1.2602,1.2566,1.2566,1.2573,1.2631,1.2638,1.2644,1.2597,1.2598,1.2599,1.2632,0,1.2532,1.2551,1.2546,1.2566,1.2575,1.2565,1.2576,1.258,1.2579,1.2587,1.2587,1.2596,1.2584,1.2587,1.2597,1.2597,1.2614,1.2594,1.2609,1.2609,1.2609,1.2649,1.2656,1.2687,1.2636,1.2636,1.2637,0,1.2563,1.2569,1.259,1.2593,1.2597,1.2606,1.2614,1.2621,1.2626,1.2625,1.2631,1.2625,1.2639,1.2624,1.2644,1.2631,1.2637,1.2639,1.264,1.2641,1.2624,1.2652,1.2696,1.2701,1.2643,1.2643,1.2642,0,1.2588,1.2601,1.2616,1.2618,1.2622,1.2629,1.2632,1.2635,1.2641,1.2648,1.2652,1.2661,1.2666,1.2674,1.2671,1.2661,1.2693,1.2677,1.2694,1.2694,1.27,1.27,1.2747,1.2703,1.2703,1.2703,1.2703,0,1.2617,1.263,1.2627,1.2636,1.2652,1.2648,1.2664,1.2665,1.2669,1.268,1.2672,1.2683,1.2679,1.2689,1.2688,1.2706,1.2708,1.2708,1.2708,1.2709,1.2709,1.2713,1.2711,1.2704,1.2704,1.2704,1.2704,0,1.2646,1.2645,1.2661,1.2664,1.2665,1.2677,1.268,1.269,1.269,1.2703,1.2707,1.2707,1.2719,1.2718,1.2731,1.273,1.2753,1.275,1.2752,1.2751,1.2768,1.2767,1.2819,1.2826,1.2777,1.2778,1.2778,0,1.2665,1.2676,1.2681,1.2687,1.269,1.27,1.2707,1.2704,1.2711,1.2719,1.2728,1.274,1.2749,1.277,1.2772,1.2783,1.278,1.2798,1.2782,1.2784,1.2782,1.2782,1.2784,1.2801,1.2802,1.2802,1.2802,0,1.2699,1.2698,1.2707,1.2717,1.2725,1.2732,1.2739,1.2745,1.2743,1.2752,1.2765,1.2772,1.2787,1.28,1.2811,1.2814,1.2809,1.2808,1.2812,1.2814,1.2815,1.2816,1.2761,1.2806,1.2806,1.2806,1.2805,1.2805,1.2724,1.2734,1.274,1.2751,1.2756,1.2764,1.2774,1.2776,1.2786,1.2798,1.2796,1.2811,1.2819,1.2833,1.2838,1.2851,1.2845,1.2851,1.2853,1.2854,1.2857,1.2813,1.2853,1.2853,1.2853,1.2853,1.2853,0,1.2759,1.2763,1.2773,1.2784,1.2793,1.2788,1.2796,1.2804,1.2818,1.2825,1.2835,1.2851,1.2864,1.2868,1.2881,1.2891,1.2889,1.2895,1.2894,1.2895,1.2861,1.2856,1.2896,1.2896,1.2896,1.2896,1.2896,1.2896,1.2778,1.2795,1.2796,1.2817,1.2821,1.2836,1.2841,1.2849,1.2855,1.2873,1.2884,1.2887,1.2894,1.2908,1.292,1.2921,1.2927,1.2934,1.2934,1.2902,1.2897,1.2893,1.2889,1.2935,1.2935,1.2967,1.2968,1.2968]},{"header":{"parameterUnit":"m.s-1","parameterCategory":1,"la1":30.2991,"la2":30.254,"lo1":-89.0895,"lo2":-89.0444,"dy":0.0017,"dx":0.0017,"nx":28,"ny":28,"refTime":"2024-03-25T21:00:00:Z","depth":0,"parameterNumber":3,"parameterNumberName":"V-component_of_WINDS"},"data":[0,0,0,0,0,0,0,0,0,0,0,0,0,0,0,0,0,0,0,0,0,0,0,0,0,0,0,0,0,0,0,0,0,0,0,0,0,0,0,0,0,0,0,0,0,0,0,0,0,0,0,0,0,0,0,0,0,0,-1.8819,-1.8818,0,-1.8717,-1.8716,-1.8715,-1.8806,-1.881,-1.8814,-1.8817,-1.8707,-1.8701,-1.8695,0,0,0,0,0,0,0,0,0,0,0,0,0,-1.9087,-1.9082,-1.8819,-1.8818,-1.8816,-1.8717,-1.8716,-1.8715,-1.8805,-1.881,-1.8814,-1.8819,-1.8709,-1.8702,-1.8694,0,0,0,0,0,0,0,0,0,0,0,0,0,-1.8977,-1.908,-1.8819,-1.885,-1.8852,-1.8718,-1.8716,-1.8714,-1.8804,-1.881,-1.8816,-1.8821,-1.8712,-1.8702,-1.8693,-1.8522,0,0,-1.8664,-1.8659,0,0,0,0,0,0,0,0,-1.8983,-1.8967,-1.8847,-1.8848,-1.8849,-1.878,-1.8771,-1.8649,-1.8803,-1.8822,-1.8817,-1.8824,-1.8727,-1.8716,-1.8685,-1.8516,-1.8512,-1.8663,-1.8657,-1.8653,-1.865,0,0,0,0,0,0,0,-1.899,-1.8971,-1.8779,-1.8845,-1.8846,-1.8867,-1.8858,-1.8748,-1.8744,-1.8821,-1.8827,-1.8814,-1.8728,-1.8694,-1.8683,-1.851,-1.8663,-1.8654,-1.8649,-1.8645,-1.8197,-1.8191,0,0,0,0,0,0,-1.8996,-1.8977,-1.8782,-1.8776,-1.8931,-1.8858,-1.8847,-1.8797,-1.8746,-1.8743,-1.881,-1.8819,-1.8707,-1.8694,-1.8679,-1.8475,-1.8653,-1.8644,-1.8638,-1.8203,-1.8196,-1.8189,0,0,0,0,0,0,-1.9001,-1.8977,-1.8786,-1.8878,-1.8856,-1.8848,-1.879,-1.8792,-1.8757,-1.8737,-1.8736,-1.8775,-1.8711,-1.8693,-1.8561,-1.8472,-1.864,-1.8631,-1.821,-1.8201,-1.8192,-1.8065,0,0,0,0,0,0,-1.9008,-1.8979,-1.8914,-1.8876,-1.885,-1.867,-1.8784,-1.8786,-1.8741,-1.8752,-1.8704,-1.8702,-1.8714,-1.8574,-1.8551,-1.8462,-1.8623,-1.8218,-1.8206,-1.8195,-1.8077,-1.8052,-1.8032,0,0,0,0,0,-1.9018,-1.8881,-1.891,-1.8886,-1.877,-1.8665,-1.865,-1.8668,-1.8734,-1.8668,-1.8656,-1.8703,-1.8487,-1.856,-1.8535,-1.8441,-1.8224,-1.821,-1.8196,-1.8087,-1.8057,-1.8032,0,0,0,0,0,0,-1.8906,-1.8876,-1.8909,-1.8756,-1.8712,-1.868,-1.8598,-1.8636,-1.8571,-1.8584,-1.8608,-1.8597,-1.8457,-1.8437,-1.8519,-1.8273,-1.8366,-1.8346,-1.8291,-1.8263,-1.8241,-1.8247,-1.8615,0,0,0,0,0,-1.8864,-1.8783,-1.8761,-1.8628,-1.8605,-1.8605,-1.856,-1.8578,-1.8533,-1.8514,-1.8492,-1.8445,-1.8367,-1.8314,-1.8241,-1.8076,-1.8066,-1.7999,-1.7976,-1.7958,-1.794,-1.7851,-1.782,-1.8144,-1.8144,-1.8144,0,0,-1.8775,-1.8749,-1.8696,-1.8605,-1.8573,-1.8487,-1.8589,-1.8493,-1.8429,-1.8499,-1.8373,-1.8356,-1.8305,-1.8156,-1.8089,-1.8134,-1.7849,-1.794,-1.7926,-1.7917,-1.7833,-1.7803,-1.7775,-1.8134,-1.8136,-1.8138,0,0,-1.8569,-1.8542,-1.8429,-1.8396,-1.8348,-1.835,-1.8322,-1.8285,-1.8276,-1.8151,-1.8203,-1.8127,-1.7991,-1.7953,-1.7915,-1.7698,-1.7739,-1.7674,-1.7554,-1.7467,-1.7441,-1.7419,-1.734,-1.7312,-1.7656,-1.7656,-1.7656,0,-1.8464,-1.8338,-1.8365,-1.8266,-1.8224,-1.8288,-1.8172,-1.8138,-1.8068,-1.8037,-1.809,-1.7922,-1.7892,-1.7734,-1.7682,-1.765,-1.7619,-1.7678,-1.7444,-1.7421,-1.74,-1.7325,-1.7296,-1.7648,-1.7649,-1.765,-1.7651,0,-1.8211,-1.8123,-1.8037,-1.797,-1.7919,-1.7811,-1.7821,-1.7766,-1.779,-1.7785,-1.7657,-1.7625,-1.7546,-1.7511,-1.7532,-1.7356,-1.7386,-1.744,-1.7533,-1.7361,-1.7291,-1.7263,-1.7637,-1.764,-1.7642,-1.7644,0,0,-1.7928,-1.788,-1.7847,-1.7818,-1.7771,-1.7703,-1.7599,-1.7524,-1.7476,-1.7426,-1.7339,-1.7224,-1.7275,-1.7233,-1.7251,-1.7175,-1.7004,-1.7239,-1.7238,-1.7195,-1.6807,-1.6764,-1.6731,-1.7033,-1.7027,-1.7023,-1.6811,0,-1.7719,-1.754,-1.7563,-1.7391,-1.7309,-1.737,-1.728,-1.724,-1.7234,-1.7163,-1.7157,-1.7074,-1.7149,-1.7124,-1.7052,-1.704,-1.6926,-1.7056,-1.6949,-1.6945,-1.6957,-1.6694,-1.6648,-1.6449,-1.6784,-1.6779,-1.6776,0,-1.745,-1.7393,-1.7214,-1.7181,-1.7148,-1.7066,-1.7,-1.6932,-1.6889,-1.689,-1.6845,-1.6877,-1.6772,-1.6869,-1.6724,-1.6812,-1.6771,-1.6759,-1.6751,-1.674,-1.6848,-1.6673,-1.6386,-1.6355,-1.6733,-1.6737,-1.674,0,-1.7259,-1.7138,-1.7015,-1.6989,-1.6948,-1.6889,-1.6869,-1.6832,-1.6786,-1.6728,-1.6699,-1.6629,-1.6589,-1.6534,-1.6546,-1.6616,-1.6398,-1.6496,-1.6394,-1.6393,-1.6342,-1.6345,-1.6042,-1.6319,-1.632,-1.632,-1.6321,0,-1.7022,-1.6909,-1.6929,-1.6853,-1.6729,-1.6756,-1.6632,-1.6619,-1.6586,-1.6508,-1.6557,-1.6482,-1.6504,-1.643,-1.6439,-1.6317,-1.63,-1.6296,-1.6299,-1.629,-1.629,-1.6261,-1.6274,-1.6313,-1.6314,-1.6316,-1.6317,0,-1.6786,-1.6795,-1.6665,-1.6639,-1.6629,-1.6539,-1.6515,-1.6443,-1.6443,-1.6343,-1.6322,-1.632,-1.6236,-1.6244,-1.6148,-1.6155,-1.6003,-1.6024,-1.6017,-1.6021,-1.5918,-1.5926,-1.5583,-1.5539,-1.5847,-1.5844,-1.5842,0,-1.6632,-1.6547,-1.6513,-1.6465,-1.6442,-1.6364,-1.6319,-1.6343,-1.6293,-1.624,-1.6173,-1.6095,-1.6032,-1.5895,-1.5884,-1.5812,-1.583,-1.5715,-1.5819,-1.5812,-1.5825,-1.5829,-1.5821,-1.5693,-1.5689,-1.5686,-1.5684,0,-1.6358,-1.6368,-1.6301,-1.6236,-1.6181,-1.6131,-1.6085,-1.6043,-1.6063,-1.6004,-1.592,-1.5872,-1.5777,-1.5697,-1.5629,-1.5607,-1.5647,-1.5652,-1.5624,-1.5612,-1.5612,-1.5609,-1.5959,-1.5659,-1.5661,-1.5663,-1.5665,-1.5666,-1.6157,-1.6085,-1.605,-1.5974,-1.5943,-1.59,-1.5832,-1.5824,-1.5755,-1.5681,-1.57,-1.5604,-1.5565,-1.5478,-1.545,-1.5375,-1.5416,-1.5376,-1.5366,-1.5355,-1.5342,-1.5626,-1.5363,-1.5364,-1.5364,-1.5365,-1.5365,0,-1.5884,-1.5865,-1.5796,-1.5732,-1.5672,-1.572,-1.5673,-1.5619,-1.5535,-1.5497,-1.5435,-1.5339,-1.5263,-1.5247,-1.5174,-1.5117,-1.5134,-1.5097,-1.51,-1.5094,-1.531,-1.534,-1.5085,-1.5085,-1.5085,-1.5085,-1.5085,-1.5085,-1.5734,-1.5614,-1.562,-1.5486,-1.5468,-1.5376,-1.5345,-1.5305,-1.5275,-1.5165,-1.5103,-1.5095,-1.5066,-1.4992,-1.4923,-1.4921,-1.4891,-1.4846,-1.485,-1.5051,-1.5079,-1.5105,-1.5134,-1.484,-1.4839,-1.4641,-1.4639,-1.4637]}]]